owner,sensor,date,latitude,longitude,vertical_datum,sea_water_temperature,qcFlag 
SCCF RECON,ioos:station:SCCF:56:1,2019-02-01T05:00:00Z,26.4645,-82.1044,1.64,16.65,11111222 
SCCF RECON,ioos:station:SCCF:56:1,2019-02-01T06:00:00Z,26.4645,-82.1044,1.64,16.58,11111222 
SCCF RECON,ioos:station:SCCF:56:1,2019-02-01T07:00:00Z,26.4645,-82.1044,1.64,16.71,11111222 
SCCF RECON,ioos:station:SCCF:56:1,2019-02-01T08:00:00Z,26.4645,-82.1044,1.64,16.83,11111222 
SCCF RECON,ioos:station:SCCF:56:1,2019-02-01T09:00:00Z,26.4645,-82.1044,1.64,17.01,11111222 
SCCF RECON,ioos:station:SCCF:56:1,2019-02-01T10:00:00Z,26.4645,-82.1044,1.64,17.16,11111222 
SCCF RECON,ioos:station:SCCF:56:1,2019-02-01T11:00:00Z,26.4645,-82.1044,1.64,17.27,11111222 
SCCF RECON,ioos:station:SCCF:56:1,2019-02-01T12:00:00Z,26.4645,-82.1044,1.64,17.27,11111222 
SCCF RECON,ioos:station:SCCF:56:1,2019-02-01T13:00:00Z,26.4645,-82.1044,1.64,16.56,11111222 
SCCF RECON,ioos:station:SCCF:56:1,2019-02-01T14:00:00Z,26.4645,-82.1044,1.64,16.64,11111222 
SCCF RECON,ioos:station:SCCF:56:1,2019-02-01T15:00:00Z,26.4645,-82.1044,1.64,16.93,11111222 
SCCF RECON,ioos:station:SCCF:56:1,2019-02-01T16:00:00Z,26.4645,-82.1044,1.64,17.2,11111222 
SCCF RECON,ioos:station:SCCF:56:1,2019-02-01T17:00:00Z,26.4645,-82.1044,1.64,17.59,11111222 
SCCF RECON,ioos:station:SCCF:56:1,2019-02-01T18:00:00Z,26.4645,-82.1044,1.64,18.03,11111222 
SCCF RECON,ioos:station:SCCF:56:1,2019-02-01T19:00:00Z,26.4645,-82.1044,1.64,17.71,11111222 
SCCF RECON,ioos:station:SCCF:56:1,2019-02-01T20:00:00Z,26.4645,-82.1044,1.64,18.01,11111222 
SCCF RECON,ioos:station:SCCF:56:1,2019-02-01T21:00:00Z,26.4645,-82.1044,1.64,18.16,11111222 
SCCF RECON,ioos:station:SCCF:56:1,2019-02-01T22:00:00Z,26.4645,-82.1044,1.64,18.4,11111222 
SCCF RECON,ioos:station:SCCF:56:1,2019-02-01T23:00:00Z,26.4645,-82.1044,1.64,18.68,11111222 
SCCF RECON,ioos:station:SCCF:56:1,2019-02-02T05:00:00Z,26.4645,-82.1044,1.64,18.29,11111222 
SCCF RECON,ioos:station:SCCF:56:1,2019-02-02T06:00:00Z,26.4645,-82.1044,1.64,18.42,11111222 
SCCF RECON,ioos:station:SCCF:56:1,2019-02-02T07:00:00Z,26.4645,-82.1044,1.64,18.48,11111222 
SCCF RECON,ioos:station:SCCF:56:1,2019-02-02T08:00:00Z,26.4645,-82.1044,1.64,18.56,11111222 
SCCF RECON,ioos:station:SCCF:56:1,2019-02-02T09:00:00Z,26.4645,-82.1044,1.64,18.64,11111222 
SCCF RECON,ioos:station:SCCF:56:1,2019-02-02T10:00:00Z,26.4645,-82.1044,1.64,18.78,11111222 
SCCF RECON,ioos:station:SCCF:56:1,2019-02-02T11:00:00Z,26.4645,-82.1044,1.64,19.0,11111222 
SCCF RECON,ioos:station:SCCF:56:1,2019-02-02T12:00:00Z,26.4645,-82.1044,1.64,19.08,11111222 
SCCF RECON,ioos:station:SCCF:56:1,2019-02-02T13:00:00Z,26.4645,-82.1044,1.64,18.93,11111222 
SCCF RECON,ioos:station:SCCF:56:1,2019-02-02T14:00:00Z,26.4645,-82.1044,1.64,18.36,11111222 
SCCF RECON,ioos:station:SCCF:56:1,2019-02-02T15:00:00Z,26.4645,-82.1044,1.64,18.23,11111222 
SCCF RECON,ioos:station:SCCF:56:1,2019-02-02T16:00:00Z,26.4645,-82.1044,1.64,18.52,11111222 
SCCF RECON,ioos:station:SCCF:56:1,2019-02-02T17:00:00Z,26.4645,-82.1044,1.64,18.51,11111222 
SCCF RECON,ioos:station:SCCF:56:1,2019-02-02T18:00:00Z,26.4645,-82.1044,1.64,18.83,11111222 
SCCF RECON,ioos:station:SCCF:56:1,2019-02-02T19:00:00Z,26.4645,-82.1044,1.64,18.86,11111222 
SCCF RECON,ioos:station:SCCF:56:1,2019-02-02T20:00:00Z,26.4645,-82.1044,1.64,19.69,11111222 
SCCF RECON,ioos:station:SCCF:56:1,2019-02-02T21:00:00Z,26.4645,-82.1044,1.64,19.8,11111222 
SCCF RECON,ioos:station:SCCF:56:1,2019-02-02T22:00:00Z,26.4645,-82.1044,1.64,20.11,11111222 
SCCF RECON,ioos:station:SCCF:56:1,2019-02-02T23:00:00Z,26.4645,-82.1044,1.64,20.1,11111222 
SCCF RECON,ioos:station:SCCF:56:1,2019-02-03T05:00:00Z,26.4645,-82.1044,1.64,18.72,11111222 
SCCF RECON,ioos:station:SCCF:56:1,2019-02-03T06:00:00Z,26.4645,-82.1044,1.64,18.86,11111222 
SCCF RECON,ioos:station:SCCF:56:1,2019-02-03T07:00:00Z,26.4645,-82.1044,1.64,19.1,11111222 
SCCF RECON,ioos:station:SCCF:56:1,2019-02-03T08:00:00Z,26.4645,-82.1044,1.64,19.1,11111222 
SCCF RECON,ioos:station:SCCF:56:1,2019-02-03T09:00:00Z,26.4645,-82.1044,1.64,19.52,11111222 
SCCF RECON,ioos:station:SCCF:56:1,2019-02-03T10:00:00Z,26.4645,-82.1044,1.64,19.67,11111222 
SCCF RECON,ioos:station:SCCF:56:1,2019-02-03T11:00:00Z,26.4645,-82.1044,1.64,19.86,11111222 
SCCF RECON,ioos:station:SCCF:56:1,2019-02-03T12:00:00Z,26.4645,-82.1044,1.64,20.03,11111222 
SCCF RECON,ioos:station:SCCF:56:1,2019-02-03T13:00:00Z,26.4645,-82.1044,1.64,20.15,11111222 
SCCF RECON,ioos:station:SCCF:56:1,2019-02-03T14:00:00Z,26.4645,-82.1044,1.64,19.89,11111222 
SCCF RECON,ioos:station:SCCF:56:1,2019-02-03T15:00:00Z,26.4645,-82.1044,1.64,18.92,11111222 
SCCF RECON,ioos:station:SCCF:56:1,2019-02-03T16:00:00Z,26.4645,-82.1044,1.64,18.92,11111222 
SCCF RECON,ioos:station:SCCF:56:1,2019-02-03T17:00:00Z,26.4645,-82.1044,1.64,19.11,11111222 
SCCF RECON,ioos:station:SCCF:56:1,2019-02-03T18:00:00Z,26.4645,-82.1044,1.64,19.23,11111222 
SCCF RECON,ioos:station:SCCF:56:1,2019-02-03T19:00:00Z,26.4645,-82.1044,1.64,19.57,11111222 
SCCF RECON,ioos:station:SCCF:56:1,2019-02-03T20:00:00Z,26.4645,-82.1044,1.64,20.17,11111222 
SCCF RECON,ioos:station:SCCF:56:1,2019-02-03T21:00:00Z,26.4645,-82.1044,1.64,20.32,11111222 
SCCF RECON,ioos:station:SCCF:56:1,2019-02-03T22:00:00Z,26.4645,-82.1044,1.64,20.63,11111222 
SCCF RECON,ioos:station:SCCF:56:1,2019-02-03T23:00:00Z,26.4645,-82.1044,1.64,21.05,11111222 
SCCF RECON,ioos:station:SCCF:56:1,2019-02-04T05:00:00Z,26.4645,-82.1044,1.64,19.58,11111222 
SCCF RECON,ioos:station:SCCF:56:1,2019-02-04T06:00:00Z,26.4645,-82.1044,1.64,20.02,11111222 
SCCF RECON,ioos:station:SCCF:56:1,2019-02-04T07:00:00Z,26.4645,-82.1044,1.64,19.87,11111222 
SCCF RECON,ioos:station:SCCF:56:1,2019-02-04T08:00:00Z,26.4645,-82.1044,1.64,20.1,11111222 
SCCF RECON,ioos:station:SCCF:56:1,2019-02-04T09:00:00Z,26.4645,-82.1044,1.64,20.46,11111222 
SCCF RECON,ioos:station:SCCF:56:1,2019-02-04T10:00:00Z,26.4645,-82.1044,1.64,20.73,11111222 
SCCF RECON,ioos:station:SCCF:56:1,2019-02-04T11:00:00Z,26.4645,-82.1044,1.64,20.83,11111222 
SCCF RECON,ioos:station:SCCF:56:1,2019-02-04T12:00:00Z,26.4645,-82.1044,1.64,21.03,11111222 
SCCF RECON,ioos:station:SCCF:56:1,2019-02-04T13:00:00Z,26.4645,-82.1044,1.64,21.16,11111222 
SCCF RECON,ioos:station:SCCF:56:1,2019-02-04T14:00:00Z,26.4645,-82.1044,1.64,21.24,11111222 
SCCF RECON,ioos:station:SCCF:56:1,2019-02-04T15:00:00Z,26.4645,-82.1044,1.64,20.61,11111222 
SCCF RECON,ioos:station:SCCF:56:1,2019-02-04T16:00:00Z,26.4645,-82.1044,1.64,20.24,11111222 
SCCF RECON,ioos:station:SCCF:56:1,2019-02-04T17:00:00Z,26.4645,-82.1044,1.64,20.26,11111222 
SCCF RECON,ioos:station:SCCF:56:1,2019-02-04T18:00:00Z,26.4645,-82.1044,1.64,20.45,11111222 
SCCF RECON,ioos:station:SCCF:56:1,2019-02-04T19:00:00Z,26.4645,-82.1044,1.64,20.58,11111222 
SCCF RECON,ioos:station:SCCF:56:1,2019-02-04T20:00:00Z,26.4645,-82.1044,1.64,21.07,11111222 
SCCF RECON,ioos:station:SCCF:56:1,2019-02-04T21:00:00Z,26.4645,-82.1044,1.64,21.12,11111222 
SCCF RECON,ioos:station:SCCF:56:1,2019-02-04T22:00:00Z,26.4645,-82.1044,1.64,21.44,11111222 
SCCF RECON,ioos:station:SCCF:56:1,2019-02-04T23:00:00Z,26.4645,-82.1044,1.64,21.69,11111222 
SCCF RECON,ioos:station:SCCF:56:1,2019-02-05T05:00:00Z,26.4645,-82.1044,1.64,20.23,11111222 
SCCF RECON,ioos:station:SCCF:56:1,2019-02-05T06:00:00Z,26.4645,-82.1044,1.64,20.05,11111222 
SCCF RECON,ioos:station:SCCF:56:1,2019-02-05T07:00:00Z,26.4645,-82.1044,1.64,20.26,11111222 
SCCF RECON,ioos:station:SCCF:56:1,2019-02-05T08:00:00Z,26.4645,-82.1044,1.64,20.39,11111222 
SCCF RECON,ioos:station:SCCF:56:1,2019-02-05T09:00:00Z,26.4645,-82.1044,1.64,20.68,11111222 
SCCF RECON,ioos:station:SCCF:56:1,2019-02-05T10:00:00Z,26.4645,-82.1044,1.64,20.77,11111222 
SCCF RECON,ioos:station:SCCF:56:1,2019-02-05T11:00:00Z,26.4645,-82.1044,1.64,20.81,11111222 
SCCF RECON,ioos:station:SCCF:56:1,2019-02-05T12:00:00Z,26.4645,-82.1044,1.64,20.82,11111222 
SCCF RECON,ioos:station:SCCF:56:1,2019-02-05T13:00:00Z,26.4645,-82.1044,1.64,20.86,11111222 
SCCF RECON,ioos:station:SCCF:56:1,2019-02-05T14:00:00Z,26.4645,-82.1044,1.64,20.85,11111222 
SCCF RECON,ioos:station:SCCF:56:1,2019-02-05T15:00:00Z,26.4645,-82.1044,1.64,20.78,11111222 
SCCF RECON,ioos:station:SCCF:56:1,2019-02-05T16:00:00Z,26.4645,-82.1044,1.64,20.77,11111222 
SCCF RECON,ioos:station:SCCF:56:1,2019-02-05T17:00:00Z,26.4645,-82.1044,1.64,20.9,11111222 
SCCF RECON,ioos:station:SCCF:56:1,2019-02-05T18:00:00Z,26.4645,-82.1044,1.64,21.09,11111222 
SCCF RECON,ioos:station:SCCF:56:1,2019-02-05T19:00:00Z,26.4645,-82.1044,1.64,21.21,11111222 
SCCF RECON,ioos:station:SCCF:56:1,2019-02-05T20:00:00Z,26.4645,-82.1044,1.64,21.47,11111222 
SCCF RECON,ioos:station:SCCF:56:1,2019-02-05T21:00:00Z,26.4645,-82.1044,1.64,21.53,11111222 
SCCF RECON,ioos:station:SCCF:56:1,2019-02-05T22:00:00Z,26.4645,-82.1044,1.64,21.83,11111222 
SCCF RECON,ioos:station:SCCF:56:1,2019-02-05T23:00:00Z,26.4645,-82.1044,1.64,21.99,11111222 
SCCF RECON,ioos:station:SCCF:56:1,2019-02-06T05:00:00Z,26.4645,-82.1044,1.64,20.85,11111222 
SCCF RECON,ioos:station:SCCF:56:1,2019-02-06T06:00:00Z,26.4645,-82.1044,1.64,20.73,11111222 
SCCF RECON,ioos:station:SCCF:56:1,2019-02-06T07:00:00Z,26.4645,-82.1044,1.64,20.61,11111222 
SCCF RECON,ioos:station:SCCF:56:1,2019-02-06T08:00:00Z,26.4645,-82.1044,1.64,20.68,11111222 
SCCF RECON,ioos:station:SCCF:56:1,2019-02-06T09:00:00Z,26.4645,-82.1044,1.64,20.81,11111222 
SCCF RECON,ioos:station:SCCF:56:1,2019-02-06T10:00:00Z,26.4645,-82.1044,1.64,20.89,11111222 
SCCF RECON,ioos:station:SCCF:56:1,2019-02-06T11:00:00Z,26.4645,-82.1044,1.64,20.91,11111222 
SCCF RECON,ioos:station:SCCF:56:1,2019-02-06T12:00:00Z,26.4645,-82.1044,1.64,20.86,11111222 
SCCF RECON,ioos:station:SCCF:56:1,2019-02-06T13:00:00Z,26.4645,-82.1044,1.64,20.82,11111222 
SCCF RECON,ioos:station:SCCF:56:1,2019-02-06T14:00:00Z,26.4645,-82.1044,1.64,20.88,11111222 
SCCF RECON,ioos:station:SCCF:56:1,2019-02-06T15:00:00Z,26.4645,-82.1044,1.64,21.04,11111222 
SCCF RECON,ioos:station:SCCF:56:1,2019-02-06T16:00:00Z,26.4645,-82.1044,1.64,21.45,11111222 
SCCF RECON,ioos:station:SCCF:56:1,2019-02-06T17:00:00Z,26.4645,-82.1044,1.64,21.7,11111222 
SCCF RECON,ioos:station:SCCF:56:1,2019-02-06T18:00:00Z,26.4645,-82.1044,1.64,21.84,11111222 
SCCF RECON,ioos:station:SCCF:56:1,2019-02-06T19:00:00Z,26.4645,-82.1044,1.64,22.09,11111222 
SCCF RECON,ioos:station:SCCF:56:1,2019-02-06T20:00:00Z,26.4645,-82.1044,1.64,22.25,11111222 
SCCF RECON,ioos:station:SCCF:56:1,2019-02-06T21:00:00Z,26.4645,-82.1044,1.64,22.66,11111222 
SCCF RECON,ioos:station:SCCF:56:1,2019-02-06T23:00:00Z,26.4645,-82.1044,1.64,22.51,11111222 
SCCF RECON,ioos:station:SCCF:56:1,2019-02-07T05:00:00Z,26.4645,-82.1044,1.64,21.29,11111222 
SCCF RECON,ioos:station:SCCF:56:1,2019-02-07T06:00:00Z,26.4645,-82.1044,1.64,21.17,11111222 
SCCF RECON,ioos:station:SCCF:56:1,2019-02-07T07:00:00Z,26.4645,-82.1044,1.64,21.02,11111222 
SCCF RECON,ioos:station:SCCF:56:1,2019-02-07T08:00:00Z,26.4645,-82.1044,1.64,21.03,11111222 
SCCF RECON,ioos:station:SCCF:56:1,2019-02-07T09:00:00Z,26.4645,-82.1044,1.64,21.04,11111222 
SCCF RECON,ioos:station:SCCF:56:1,2019-02-07T10:00:00Z,26.4645,-82.1044,1.64,21.32,11111222 
SCCF RECON,ioos:station:SCCF:56:1,2019-02-07T11:00:00Z,26.4645,-82.1044,1.64,21.34,11111222 
SCCF RECON,ioos:station:SCCF:56:1,2019-02-07T12:00:00Z,26.4645,-82.1044,1.64,21.36,11111222 
SCCF RECON,ioos:station:SCCF:56:1,2019-02-07T13:00:00Z,26.4645,-82.1044,1.64,21.35,11111222 
SCCF RECON,ioos:station:SCCF:56:1,2019-02-07T14:00:00Z,26.4645,-82.1044,1.64,21.41,11111222 
SCCF RECON,ioos:station:SCCF:56:1,2019-02-07T15:00:00Z,26.4645,-82.1044,1.64,21.52,11111222 
SCCF RECON,ioos:station:SCCF:56:1,2019-02-07T16:00:00Z,26.4645,-82.1044,1.64,22.0,11111222 
SCCF RECON,ioos:station:SCCF:56:1,2019-02-07T17:00:00Z,26.4645,-82.1044,1.64,22.31,11111222 
SCCF RECON,ioos:station:SCCF:56:1,2019-02-07T18:00:00Z,26.4645,-82.1044,1.64,22.25,11111222 
SCCF RECON,ioos:station:SCCF:56:1,2019-02-07T19:00:00Z,26.4645,-82.1044,1.64,22.36,11111222 
SCCF RECON,ioos:station:SCCF:56:1,2019-02-07T20:00:00Z,26.4645,-82.1044,1.64,22.41,11111222 
SCCF RECON,ioos:station:SCCF:56:1,2019-02-07T21:00:00Z,26.4645,-82.1044,1.64,22.68,11111222 
SCCF RECON,ioos:station:SCCF:56:1,2019-02-07T22:00:00Z,26.4645,-82.1044,1.64,22.48,11111222 
SCCF RECON,ioos:station:SCCF:56:1,2019-02-07T23:00:00Z,26.4645,-82.1044,1.64,22.81,11111222 
SCCF RECON,ioos:station:SCCF:56:1,2019-02-08T05:00:00Z,26.4645,-82.1044,1.64,21.67,11111222 
SCCF RECON,ioos:station:SCCF:56:1,2019-02-08T06:00:00Z,26.4645,-82.1044,1.64,21.52,11111222 
SCCF RECON,ioos:station:SCCF:56:1,2019-02-08T07:00:00Z,26.4645,-82.1044,1.64,21.46,11111222 
SCCF RECON,ioos:station:SCCF:56:1,2019-02-08T08:00:00Z,26.4645,-82.1044,1.64,21.37,11111222 
SCCF RECON,ioos:station:SCCF:56:1,2019-02-08T09:00:00Z,26.4645,-82.1044,1.64,21.38,11111222 
SCCF RECON,ioos:station:SCCF:56:1,2019-02-08T10:00:00Z,26.4645,-82.1044,1.64,21.48,11111222 
SCCF RECON,ioos:station:SCCF:56:1,2019-02-08T11:00:00Z,26.4645,-82.1044,1.64,21.65,11111222 
SCCF RECON,ioos:station:SCCF:56:1,2019-02-08T12:00:00Z,26.4645,-82.1044,1.64,21.68,11111222 
SCCF RECON,ioos:station:SCCF:56:1,2019-02-08T13:00:00Z,26.4645,-82.1044,1.64,21.67,11111222 
SCCF RECON,ioos:station:SCCF:56:1,2019-02-08T14:00:00Z,26.4645,-82.1044,1.64,21.76,11111222 
SCCF RECON,ioos:station:SCCF:56:1,2019-02-08T15:00:00Z,26.4645,-82.1044,1.64,21.94,11111222 
SCCF RECON,ioos:station:SCCF:56:1,2019-02-08T16:00:00Z,26.4645,-82.1044,1.64,22.26,11111222 
SCCF RECON,ioos:station:SCCF:56:1,2019-02-08T17:00:00Z,26.4645,-82.1044,1.64,22.68,11111222 
SCCF RECON,ioos:station:SCCF:56:1,2019-02-08T18:00:00Z,26.4645,-82.1044,1.64,22.71,11111222 
SCCF RECON,ioos:station:SCCF:56:1,2019-02-08T19:00:00Z,26.4645,-82.1044,1.64,22.75,11111222 
SCCF RECON,ioos:station:SCCF:56:1,2019-02-08T20:00:00Z,26.4645,-82.1044,1.64,22.77,11111222 
SCCF RECON,ioos:station:SCCF:56:1,2019-02-08T21:00:00Z,26.4645,-82.1044,1.64,23.11,11111222 
SCCF RECON,ioos:station:SCCF:56:1,2019-02-08T22:00:00Z,26.4645,-82.1044,1.64,23.1,11111222 
SCCF RECON,ioos:station:SCCF:56:1,2019-02-08T23:00:00Z,26.4645,-82.1044,1.64,23.07,11111222 
SCCF RECON,ioos:station:SCCF:56:1,2019-02-09T05:00:00Z,26.4645,-82.1044,1.64,22.47,11111222 
SCCF RECON,ioos:station:SCCF:56:1,2019-02-09T06:00:00Z,26.4645,-82.1044,1.64,22.47,11111222 
SCCF RECON,ioos:station:SCCF:56:1,2019-02-09T07:00:00Z,26.4645,-82.1044,1.64,22.24,11111222 
SCCF RECON,ioos:station:SCCF:56:1,2019-02-09T08:00:00Z,26.4645,-82.1044,1.64,22.15,11111222 
SCCF RECON,ioos:station:SCCF:56:1,2019-02-09T09:00:00Z,26.4645,-82.1044,1.64,22.04,11111222 
SCCF RECON,ioos:station:SCCF:56:1,2019-02-09T10:00:00Z,26.4645,-82.1044,1.64,22.09,11111222 
SCCF RECON,ioos:station:SCCF:56:1,2019-02-09T11:00:00Z,26.4645,-82.1044,1.64,22.13,11111222 
SCCF RECON,ioos:station:SCCF:56:1,2019-02-09T12:00:00Z,26.4645,-82.1044,1.64,22.25,11111222 
SCCF RECON,ioos:station:SCCF:56:1,2019-02-09T13:00:00Z,26.4645,-82.1044,1.64,22.22,11111222 
SCCF RECON,ioos:station:SCCF:56:1,2019-02-09T14:00:00Z,26.4645,-82.1044,1.64,22.2,11111222 
SCCF RECON,ioos:station:SCCF:56:1,2019-02-09T15:00:00Z,26.4645,-82.1044,1.64,22.29,11111222 
SCCF RECON,ioos:station:SCCF:56:1,2019-02-09T16:00:00Z,26.4645,-82.1044,1.64,22.43,11111222 
SCCF RECON,ioos:station:SCCF:56:1,2019-02-09T17:00:00Z,26.4645,-82.1044,1.64,23.03,11111222 
SCCF RECON,ioos:station:SCCF:56:1,2019-02-09T18:00:00Z,26.4645,-82.1044,1.64,23.09,11111222 
SCCF RECON,ioos:station:SCCF:56:1,2019-02-09T19:00:00Z,26.4645,-82.1044,1.64,23.2,11111222 
SCCF RECON,ioos:station:SCCF:56:1,2019-02-09T20:00:00Z,26.4645,-82.1044,1.64,23.15,11111222 
SCCF RECON,ioos:station:SCCF:56:1,2019-02-09T21:00:00Z,26.4645,-82.1044,1.64,23.1,11111222 
SCCF RECON,ioos:station:SCCF:56:1,2019-02-09T22:00:00Z,26.4645,-82.1044,1.64,23.1,11111222 
SCCF RECON,ioos:station:SCCF:56:1,2019-02-09T23:00:00Z,26.4645,-82.1044,1.64,23.0,11111222 
SCCF RECON,ioos:station:SCCF:56:1,2019-02-10T05:00:00Z,26.4645,-82.1044,1.64,22.47,11111222 
SCCF RECON,ioos:station:SCCF:56:1,2019-02-10T06:00:00Z,26.4645,-82.1044,1.64,22.17,11111222 
SCCF RECON,ioos:station:SCCF:56:1,2019-02-10T07:00:00Z,26.4645,-82.1044,1.64,21.97,11111222 
SCCF RECON,ioos:station:SCCF:56:1,2019-02-10T08:00:00Z,26.4645,-82.1044,1.64,22.05,11111222 
SCCF RECON,ioos:station:SCCF:56:1,2019-02-10T09:00:00Z,26.4645,-82.1044,1.64,21.85,11111222 
SCCF RECON,ioos:station:SCCF:56:1,2019-02-10T10:00:00Z,26.4645,-82.1044,1.64,21.68,11111222 
SCCF RECON,ioos:station:SCCF:56:1,2019-02-10T11:00:00Z,26.4645,-82.1044,1.64,21.74,11111222 
SCCF RECON,ioos:station:SCCF:56:1,2019-02-10T12:00:00Z,26.4645,-82.1044,1.64,21.74,11111222 
SCCF RECON,ioos:station:SCCF:56:1,2019-02-10T13:00:00Z,26.4645,-82.1044,1.64,21.69,11111222 
SCCF RECON,ioos:station:SCCF:56:1,2019-02-10T14:00:00Z,26.4645,-82.1044,1.64,21.79,11111222 
SCCF RECON,ioos:station:SCCF:56:1,2019-02-10T15:00:00Z,26.4645,-82.1044,1.64,21.85,11111222 
SCCF RECON,ioos:station:SCCF:56:1,2019-02-10T16:00:00Z,26.4645,-82.1044,1.64,21.99,11111222 
SCCF RECON,ioos:station:SCCF:56:1,2019-02-10T17:00:00Z,26.4645,-82.1044,1.64,22.85,11111222 
SCCF RECON,ioos:station:SCCF:56:1,2019-02-10T18:00:00Z,26.4645,-82.1044,1.64,23.29,11111222 
SCCF RECON,ioos:station:SCCF:56:1,2019-02-10T19:00:00Z,26.4645,-82.1044,1.64,23.13,11111222 
SCCF RECON,ioos:station:SCCF:56:1,2019-02-10T20:00:00Z,26.4645,-82.1044,1.64,23.31,11111222 
SCCF RECON,ioos:station:SCCF:56:1,2019-02-10T21:00:00Z,26.4645,-82.1044,1.64,23.45,11111222 
SCCF RECON,ioos:station:SCCF:56:1,2019-02-10T22:00:00Z,26.4645,-82.1044,1.64,23.34,11111222 
SCCF RECON,ioos:station:SCCF:56:1,2019-02-10T23:00:00Z,26.4645,-82.1044,1.64,23.14,11111222 
SCCF RECON,ioos:station:SCCF:56:1,2019-02-11T05:00:00Z,26.4645,-82.1044,1.64,23.39,11111222 
SCCF RECON,ioos:station:SCCF:56:1,2019-02-11T06:00:00Z,26.4645,-82.1044,1.64,22.95,11111222 
SCCF RECON,ioos:station:SCCF:56:1,2019-02-11T07:00:00Z,26.4645,-82.1044,1.64,22.36,11111222 
SCCF RECON,ioos:station:SCCF:56:1,2019-02-11T08:00:00Z,26.4645,-82.1044,1.64,22.27,11111222 
SCCF RECON,ioos:station:SCCF:56:1,2019-02-11T09:00:00Z,26.4645,-82.1044,1.64,22.19,11111222 
SCCF RECON,ioos:station:SCCF:56:1,2019-02-11T10:00:00Z,26.4645,-82.1044,1.64,22.3,11111222 
SCCF RECON,ioos:station:SCCF:56:1,2019-02-11T11:00:00Z,26.4645,-82.1044,1.64,22.29,11111222 
SCCF RECON,ioos:station:SCCF:56:1,2019-02-11T12:00:00Z,26.4645,-82.1044,1.64,22.17,11111222 
SCCF RECON,ioos:station:SCCF:56:1,2019-02-11T13:00:00Z,26.4645,-82.1044,1.64,22.21,11111222 
SCCF RECON,ioos:station:SCCF:56:1,2019-02-11T14:00:00Z,26.4645,-82.1044,1.64,22.31,11111222 
SCCF RECON,ioos:station:SCCF:56:1,2019-02-11T15:00:00Z,26.4645,-82.1044,1.64,22.6,11111222 
SCCF RECON,ioos:station:SCCF:56:1,2019-02-11T16:00:00Z,26.4645,-82.1044,1.64,22.99,11111222 
SCCF RECON,ioos:station:SCCF:56:1,2019-02-11T17:00:00Z,26.4645,-82.1044,1.64,23.26,11111222 
SCCF RECON,ioos:station:SCCF:56:1,2019-02-11T18:00:00Z,26.4645,-82.1044,1.64,23.92,11111222 
SCCF RECON,ioos:station:SCCF:56:1,2019-02-11T19:00:00Z,26.4645,-82.1044,1.64,24.2,11111222 
SCCF RECON,ioos:station:SCCF:56:1,2019-02-11T20:00:00Z,26.4645,-82.1044,1.64,23.87,11111222 
SCCF RECON,ioos:station:SCCF:56:1,2019-02-11T21:00:00Z,26.4645,-82.1044,1.64,23.69,11111222 
SCCF RECON,ioos:station:SCCF:56:1,2019-02-11T22:00:00Z,26.4645,-82.1044,1.64,23.7,11111222 
SCCF RECON,ioos:station:SCCF:56:1,2019-02-11T23:00:00Z,26.4645,-82.1044,1.64,23.65,11111222 
SCCF RECON,ioos:station:SCCF:56:1,2019-02-12T05:00:00Z,26.4645,-82.1044,1.64,24.18,11111222 
SCCF RECON,ioos:station:SCCF:56:1,2019-02-12T06:00:00Z,26.4645,-82.1044,1.64,24.09,11111222 
SCCF RECON,ioos:station:SCCF:56:1,2019-02-12T07:00:00Z,26.4645,-82.1044,1.64,23.62,11111222 
SCCF RECON,ioos:station:SCCF:56:1,2019-02-12T08:00:00Z,26.4645,-82.1044,1.64,23.28,11111222 
SCCF RECON,ioos:station:SCCF:56:1,2019-02-12T09:00:00Z,26.4645,-82.1044,1.64,22.95,11111222 
SCCF RECON,ioos:station:SCCF:56:1,2019-02-12T10:00:00Z,26.4645,-82.1044,1.64,23.05,11111222 
SCCF RECON,ioos:station:SCCF:56:1,2019-02-12T11:00:00Z,26.4645,-82.1044,1.64,22.79,11111222 
SCCF RECON,ioos:station:SCCF:56:1,2019-02-12T12:00:00Z,26.4645,-82.1044,1.64,22.95,11111222 
SCCF RECON,ioos:station:SCCF:56:1,2019-02-12T13:00:00Z,26.4645,-82.1044,1.64,22.68,11111222 
SCCF RECON,ioos:station:SCCF:56:1,2019-02-12T14:00:00Z,26.4645,-82.1044,1.64,22.89,11111222 
SCCF RECON,ioos:station:SCCF:56:1,2019-02-12T15:00:00Z,26.4645,-82.1044,1.64,23.07,11111222 
SCCF RECON,ioos:station:SCCF:56:1,2019-02-12T16:00:00Z,26.4645,-82.1044,1.64,23.39,11111222 
SCCF RECON,ioos:station:SCCF:56:1,2019-02-12T17:00:00Z,26.4645,-82.1044,1.64,23.63,11111222 
SCCF RECON,ioos:station:SCCF:56:1,2019-02-12T18:00:00Z,26.4645,-82.1044,1.64,23.85,11111222 
SCCF RECON,ioos:station:SCCF:56:1,2019-02-12T19:00:00Z,26.4645,-82.1044,1.64,24.26,11111222 
SCCF RECON,ioos:station:SCCF:56:1,2019-02-12T20:00:00Z,26.4645,-82.1044,1.64,24.17,11111222 
SCCF RECON,ioos:station:SCCF:56:1,2019-02-12T21:00:00Z,26.4645,-82.1044,1.64,23.84,11111222 
SCCF RECON,ioos:station:SCCF:56:1,2019-02-12T22:00:00Z,26.4645,-82.1044,1.64,23.7,11111222 
SCCF RECON,ioos:station:SCCF:56:1,2019-02-12T23:00:00Z,26.4645,-82.1044,1.64,23.2,11111222 
SCCF RECON,ioos:station:SCCF:56:1,2019-02-13T05:00:00Z,26.4645,-82.1044,1.64,24.45,11111222 
SCCF RECON,ioos:station:SCCF:56:1,2019-02-13T06:00:00Z,26.4645,-82.1044,1.64,24.51,11111222 
SCCF RECON,ioos:station:SCCF:56:1,2019-02-13T07:00:00Z,26.4645,-82.1044,1.64,24.47,11111222 
SCCF RECON,ioos:station:SCCF:56:1,2019-02-13T08:00:00Z,26.4645,-82.1044,1.64,24.3,11111222 
SCCF RECON,ioos:station:SCCF:56:1,2019-02-13T09:00:00Z,26.4645,-82.1044,1.64,23.94,11111222 
SCCF RECON,ioos:station:SCCF:56:1,2019-02-13T10:00:00Z,26.4645,-82.1044,1.64,23.15,11111222 
SCCF RECON,ioos:station:SCCF:56:1,2019-02-13T11:00:00Z,26.4645,-82.1044,1.64,23.73,11111222 
SCCF RECON,ioos:station:SCCF:56:1,2019-02-13T12:00:00Z,26.4645,-82.1044,1.64,23.61,11111222 
SCCF RECON,ioos:station:SCCF:56:1,2019-02-13T13:00:00Z,26.4645,-82.1044,1.64,23.43,11111222 
SCCF RECON,ioos:station:SCCF:56:1,2019-02-13T14:00:00Z,26.4645,-82.1044,1.64,23.11,11111222 
SCCF RECON,ioos:station:SCCF:56:1,2019-02-13T15:00:00Z,26.4645,-82.1044,1.64,22.88,11111222 
SCCF RECON,ioos:station:SCCF:56:1,2019-02-13T16:00:00Z,26.4645,-82.1044,1.64,22.71,11111222 
SCCF RECON,ioos:station:SCCF:56:1,2019-02-13T17:00:00Z,26.4645,-82.1044,1.64,22.46,11111222 
SCCF RECON,ioos:station:SCCF:56:1,2019-02-13T18:00:00Z,26.4645,-82.1044,1.64,22.36,11111222 
SCCF RECON,ioos:station:SCCF:56:1,2019-02-13T19:00:00Z,26.4645,-82.1044,1.64,22.04,11111222 
SCCF RECON,ioos:station:SCCF:56:1,2019-02-13T20:00:00Z,26.4645,-82.1044,1.64,22.0,11111222 
SCCF RECON,ioos:station:SCCF:56:1,2019-02-13T21:00:00Z,26.4645,-82.1044,1.64,21.66,11111222 
SCCF RECON,ioos:station:SCCF:56:1,2019-02-14T21:00:00Z,26.4645,-82.1044,1.64,21.01,11111222 
SCCF RECON,ioos:station:SCCF:56:1,2019-02-14T22:00:00Z,26.4645,-82.1044,1.64,21.36,11111222 
SCCF RECON,ioos:station:SCCF:56:1,2019-02-14T23:00:00Z,26.4645,-82.1044,1.64,21.15,11111222 
SCCF RECON,ioos:station:SCCF:56:1,2019-02-15T05:00:00Z,26.4645,-82.1044,1.64,20.44,11111222 
SCCF RECON,ioos:station:SCCF:56:1,2019-02-15T06:00:00Z,26.4645,-82.1044,1.64,20.36,11111222 
SCCF RECON,ioos:station:SCCF:56:1,2019-02-15T07:00:00Z,26.4645,-82.1044,1.64,20.29,11111222 
SCCF RECON,ioos:station:SCCF:56:1,2019-02-15T08:00:00Z,26.4645,-82.1044,1.64,20.11,11111222 
SCCF RECON,ioos:station:SCCF:56:1,2019-02-15T09:00:00Z,26.4645,-82.1044,1.64,20.01,11111222 
SCCF RECON,ioos:station:SCCF:56:1,2019-02-15T10:00:00Z,26.4645,-82.1044,1.64,19.89,11111222 
SCCF RECON,ioos:station:SCCF:56:1,2019-02-15T11:00:00Z,26.4645,-82.1044,1.64,19.74,11111222 
SCCF RECON,ioos:station:SCCF:56:1,2019-02-15T12:00:00Z,26.4645,-82.1044,1.64,19.8,11111222 
SCCF RECON,ioos:station:SCCF:56:1,2019-02-15T13:00:00Z,26.4645,-82.1044,1.64,19.82,11111222 
SCCF RECON,ioos:station:SCCF:56:1,2019-02-15T14:00:00Z,26.4645,-82.1044,1.64,19.88,11111222 